User: anonymous   Login
Location: Unspecified
(0.0000°N, 0.0000°E)
Time: 06:17:12
(UTC+00:00)
Language:

AO-40 - Orbit

View from above orbital plane
View from above orbital plane
View from above satellite
View from above satellite

Ground track
Ground track

The orbit data is extracted from the following two-line orbital elements,

1 26609U 00072B   21132.29122975 -.00000383  00000-0  00000-0 0  9993
2 26609   9.1833 329.1476 7947939 253.0797  14.3928  1.25587078 94139
Epoch (UTC): 12 May 2021 06:59:22
Eccentricity: 0.7947939
inclination: 9.1833°
perigee height: 1068 km
apogee height: 58752 km
right ascension of ascending node: 329.1476°
argument of perigee: 253.0797°
revolutions per day: 1.25587078
mean anomaly at epoch: 14.3928°
orbit number at epoch: 9413

The dashed part of the orbit path shows where the satellite is in the earth's shadow,  

DLR